This demonstration page uses our WeatherBlox Daily Observations layout. Learn more.

41.55636, -103.73856

Hourly Observations for May 1, 2018

Temp ( °F °C ) Dew Point ( °F °C ) Humidity (%) Winds ( mph kmh ) Pressure ( in mb ) Visibility ( mi km ) Precip ( " mm )
12:53 am 00:53 Clear 44 6.7 44 6.7 100 100 SW 5 7 29.74 1007 10 16.09344 0 0
1:53 am 01:53 Clear 42 5.6 42 5.6 100 100 N 7 11 29.74 1007 10 16.09344 0 0
2:53 am 02:53 Mostly Clear 39 4 N/A N/A N 5 7 29.74 1007 10 16.09344 0 0
3:53 am 03:53 Clear 38 3.3 38 3.3 100 100 N 3 6 29.74 1007 10 16.09344 0 0
4:36 am 04:36 Partly Cloudy with Mist and Fog 39 4 39 4 100 100 S 5 7 29.85 1011 5 8.04672 0 0
4:48 am 04:48 Mostly Cloudy with Mist and Fog 39 4 39 4 100 100 Calm 29.85 1011 4 6.437376 0 0
4:53 am 04:53 Mostly Cloudy with Mist and Fog 40 4.4 40 4.4 100 100 Calm 29.74 1007 4 6.437376 0 0
5:31 am 05:31 Cloudy with Mist and Fog 41 5 41 5 100 100 S 5 7 29.83 1010 1.75 2.816352 0 0
5:45 am 05:45 Cloudy with Mist and Fog 40 4.4 40 4.4 100 100 Calm 29.83 1010 2 3.218688 0 0
5:53 am 05:53 Cloudy with Mist and Fog 41 5 41 5 100 100 Calm 29.77 1008 1.5 2.414016 0 0
5:58 am 05:58 Cloudy with Fog 41 5 41 5 100 100 Calm 29.85 1011 0.25 0.402336 0 0
6:05 am 06:05 Cloudy with Fog 41 5 41 5 100 100 Calm 29.83 1010 0.25 0.402336 0 0
6:24 am 06:24 Mostly Cloudy with Mist and Fog 42 5.6 42 5.6 100 100 S 5 7 29.85 1011 1 1.609344 0 0
6:27 am 06:27 Mostly Cloudy with Mist and Fog 42 5.6 42 5.6 100 100 S 5 7 29.85 1011 4 6.437376 0 0
6:36 am 06:36 Mostly Cloudy 43 6 43 6 100 100 S 5 7 29.85 1011 10 16.09344 0 0
6:53 am 06:53 Mostly Cloudy 42 5.6 42 5.6 100 100 Calm 29.74 1007 10 16.09344 0 0
7:53 am 07:53 Partly Cloudy 45 7.2 45 7.2 100 100 WNW 5 7 29.77 1008 10 16.09344 0 0
8:51 am 08:51 Mostly Cloudy 48 9 46 8 94 94 W 5 7 29.8 1009 10 16.09344 0.001 0.001
8:53 am 08:53 Mostly Cloudy 49 9.4 47 8.3 93 93 W 5 7 29.77 1008 10 16.09344 0.001 0.001
9:53 am 09:53 Mostly Cloudy 52 11.1 42 5.6 69 69 WNW 8 13 29.77 1008 10 16.09344 0 0
10:53 am 10:53 Mostly Cloudy 52 11.1 43 6.1 72 72 NW 9 15 29.77 1008 10 16.09344 0 0
11:53 am 11:53 Cloudy 54 12.2 44 6.7 69 69 NW 14 22 29.77 1008 10 16.09344 0 0
12:53 pm 12:53 Mostly Sunny 59 15 40 4.4 49 49 NW 10 17 29.74 1007 10 16.09344 0 0
1:53 pm 13:53 Partly Cloudy 61 16.1 42 5.6 50 50 NW 8 13 29.74 1007 10 16.09344 0 0
2:53 pm 14:53 Mostly Cloudy 60 15.6 41 5 50 50 N 7 11 29.74 1007 10 16.09344 0 0
3:37 pm 15:37 Cloudy with Thunderstorms 57 13.9 43 6.1 60 60 WNW 21 33 29.74 1007 10 16.09344 0.001 0.001
3:46 pm 15:46 Cloudy with Heavy Thunderstorms 46 8 45 7 93 93 WNW 25 41 29.85 1011 1.75 2.816352 0 0
3:53 pm 15:53 Cloudy with Thunderstorms 47 8.3 44 6.7 90 90 WNW 26 43 29.83 1010 1.75 2.816352 0.13 3.302
3:57 pm 15:57 Cloudy with Thunderstorms 47 8.3 44 6.7 90 90 NW 21 33 29.85 1011 3 4.828032 0.02 0.508
4:07 pm 16:07 Cloudy with Nearby Thunderstorms 46 8 N/A N/A NW 20 31 29.85 1011 6 9.656064 0.03 0.762
4:29 pm 16:29 Cloudy with Rain 46 8 N/A N/A N 15 24 29.83 1010 5 8.04672 0.08 2.032
4:53 pm 16:53 Cloudy with Light Rain 48 9 N/A N/A NE 12 19 29.8 1009 10 16.09344 0.11 2.794
5:53 pm 17:53 Cloudy with Light Rain 48 9 N/A N/A SSE 6 9 29.83 1010 10 16.09344 0.03 0.762
6:53 pm 18:53 Cloudy 48 9 N/A N/A ESE 7 11 29.83 1010 10 16.09344 0.001 0.001
7:53 pm 19:53 Mostly Cloudy 46 8 N/A N/A Calm 29.83 1010 10 16.09344 0 0
8:53 pm 20:53 Mostly Cloudy 46 8 N/A N/A E 6 9 29.83 1010 10 16.09344 0 0
9:53 pm 21:53 Partly Cloudy 46 8 N/A N/A Calm 29.85 1011 10 16.09344 0 0
10:53 pm 22:53 Cloudy 46 8 N/A N/A Calm 29.88 1012 10 16.09344 0 0
11:53 pm 23:53 Cloudy 46 7.8 46 7.8 100 100 ENE 7 11 29.85 1011 10 16.09344 0.001 0.001

Powered by AerisWeather